Maun, Botswana

4:56 AM CAT on May 22, 2018 (GMT +0200)
Maun

Weather History for FBMN - December, 2013

Change the Weather History Date:

Sunday, December 29, 2013

  Actual Average Record
Temperature  
Mean Temperature 76 °F -  
Max Temperature 83 °F 88 °F 131 °F (2016)
Min Temperature 69 °F 69 °F 66 °F (2005)
Cooling Degree Days 11    
Growing Degree Days 26 (Base 50)    
Moisture  
Dew Point 68 °F    
Average Humidity 76    
Maximum Humidity 94    
Minimum Humidity 55    
Precipitation  
Precipitation 0.00 in - - ()
Sea Level Pressure  
Sea Level Pressure 29.91 in    
Wind  
Wind Speed 4 mph ()    
Max Wind Speed 12 mph    
Max Gust Speed -    
Visibility 6.1 miles    
Events      
Averages and records for this station are not official NWS values.
T = Trace of Precipitation, MM = Missing Value Source: Averaged Metar Reports

Daily Weather History Graph

Daily Weather History Graph

Search for Another Location

Airport or City:

Astronomy

Dec. 29, 2013 Rise Set
Actual Time 5:48 AM CAT 7:08 PM CAT
Civil Twilight 5:23 AM CAT 7:32 PM CAT
Nautical Twilight 4:54 AM CAT 8:01 PM CAT
Astronomical Twilight 4:24 AM CAT 8:32 PM CAT
Moon 2:43 AM CAT (12/29) 4:04 PM CAT (12/29)
Length of Visible Light 14h 08m
Length of Day
13h 19m
Waning Crescent, 13% of the Moon is Illuminated
Dec 29
Waning Crescent
Jan 1
New
Jan 8
First Quarter
Jan 16
Full
Jan 24
Last Quarter

Hourly Weather History & Observations

Time (CAT) Temp. Heat Index Dew Point Humidity Pressure Visibility Wind Dir Wind Speed Gust Speed Precip Events Conditions
12:00 AM 71.6 °F - 68.0 °F 88% 29.95 in 6.2 mi Variable 2.3 mph - N/A   Mostly Cloudy
12:30 AM 71.6 °F - 68.0 °F 88% 29.95 in 6.2 mi ENE 3.5 mph - N/A   Mostly Cloudy
1:00 AM 71.6 °F - 68.0 °F 88% 29.95 in 6.2 mi ENE 3.5 mph - N/A   Mostly Cloudy
2:00 AM 71 °F - 69 °F 92%  in 6 mi ENE 4.6 mph - -   Partly Cloudy
2:00 AM 71.6 °F - 69.8 °F 94% 29.92 in 6.2 mi ENE 4.6 mph - N/A   Mostly Cloudy
3:00 AM 71.6 °F - 68.0 °F 88% 29.92 in 6.2 mi NE 10.4 mph - N/A   Mostly Cloudy
4:00 AM 71.6 °F - 68.0 °F 88% 29.92 in 6.2 mi ENE 9.2 mph - N/A   Mostly Cloudy
5:00 AM 70 °F - 68 °F 90%  in 6 mi NE 6.9 mph - -   Partly Cloudy
5:00 AM 69.8 °F - 68.0 °F 94% 29.92 in 6.2 mi NE 6.9 mph - N/A   Mostly Cloudy
6:00 AM 69.8 °F - 68.0 °F 94% 29.92 in 6.2 mi NNE 4.6 mph - N/A   Scattered Clouds
7:00 AM 71.6 °F - 68.0 °F 88% 29.95 in - Calm Calm - N/A   Clear
8:00 AM 72 °F - 68 °F 85%  in 6 mi South 11.5 mph - -   Partly Cloudy
8:00 AM 71.6 °F - 68.0 °F 88% 29.98 in 6.2 mi South 11.5 mph - N/A   Scattered Clouds
9:00 AM 73.4 °F - 69.8 °F 88% 29.98 in 6.2 mi SE 9.2 mph - N/A   Partly Cloudy
11:00 AM 78 °F - 67 °F 60%  in 6 mi SE 8.1 mph - -   Partly Cloudy
11:00 AM 78.8 °F - 66.2 °F 65% 29.98 in 6.2 mi SE 8.1 mph - N/A   Partly Cloudy
12:00 PM 78.8 °F - 64.4 °F 61% 29.95 in 6.2 mi Calm Calm - N/A   Scattered Clouds
1:00 PM 77.0 °F - 68.0 °F 74% 29.92 in 6.2 mi NNW 6.9 mph - N/A   Scattered Clouds
2:00 PM 81 °F - 67 °F 55%  in 6 mi Calm Calm - -   Partly Cloudy
2:00 PM 80.6 °F 83.2 °F 68.0 °F 65% 29.86 in 6.2 mi Calm Calm - N/A   Scattered Clouds
3:00 PM 82.4 °F 84.6 °F 66.2 °F 58% 29.83 in 6.2 mi West 4.6 mph - N/A   Partly Cloudy
4:00 PM 84.2 °F 86.6 °F 66.2 °F 55% 29.83 in 6.2 mi Variable 2.3 mph - N/A   Partly Cloudy
5:00 PM 80 °F - 67 °F 57%  in 6 mi East 6.9 mph - -   Partly Cloudy
5:00 PM 80.6 °F 83.2 °F 68.0 °F 65% 29.83 in 6.2 mi East 6.9 mph - N/A   Partly Cloudy
6:00 PM 78.8 °F - 68.0 °F 69% 29.83 in 6.2 mi East 6.9 mph - N/A   Partly Cloudy
7:00 PM 78.8 °F - 66.2 °F 65% 29.86 in 6.2 mi ENE 6.9 mph - N/A   Partly Cloudy
8:00 PM 78 °F - 66 °F 59%  in 6 mi NE 2.3 mph - -   Scattered Clouds
8:00 PM 78.8 °F - 66.2 °F 65% 29.89 in 6.2 mi Variable 2.3 mph - N/A   Partly Cloudy
9:00 PM 77.0 °F - 68.0 °F 74% 29.92 in 6.2 mi Variable 1.2 mph - N/A   Partly Cloudy
10:00 PM 75.2 °F - 68.0 °F 78% 29.92 in 6.2 mi Variable 2.3 mph - N/A   Partly Cloudy
11:00 PM 75 °F - 68 °F 73%  in 6 mi WSW 2.3 mph - -   Partly Cloudy
11:00 PM 75.2 °F - 68.0 °F 78% 29.95 in 6.2 mi Variable 2.3 mph - N/A   Partly Cloudy